This demonstration page uses our WeatherBlox Daily Observations layout. Learn more.

36.17497, -115.13722

Hourly Observations for August 13, 2018

Temp ( °F °C ) Dew Point ( °F °C ) Humidity (%) Winds ( mph kmh ) Pressure ( in mb ) Visibility ( mi km ) Precip ( " mm )
12:53 am 00:53 Clear 90 32.2 50 10 25 25 NE 6 9 29.84 1010 10 16.0934 0 0
1:53 am 01:53 Clear 89 31.7 49 9.4 25 25 W 5 7 29.84 1010 10 16.0934 0 0
2:53 am 02:53 Clear 87 30.6 51 10.6 29 29 Calm 29.83 1010 10 16.0934 0 0
3:53 am 03:53 Clear 86 30 48 8.9 27 27 NW 5 7 29.84 1010 10 16.0934 0 0
4:53 am 04:53 Clear 84 28.9 48 8.9 29 29 Calm 29.85 1011 10 16.0934 0 0
5:53 am 05:53 Clear 82 27.8 50 10 33 33 N 7 11 29.86 1011 10 16.0934 0 0
6:53 am 06:53 Sunny 83 28.3 52 11.1 34 34 Calm 29.88 1012 10 16.0934 0 0
7:53 am 07:53 Sunny 86 30 55 12.8 35 35 NNE 3 6 29.88 1012 10 16.0934 0 0
8:53 am 08:53 Sunny 90 32.2 55 12.8 31 31 ENE 5 7 29.88 1012 10 16.0934 0 0
9:53 am 09:53 Sunny 91 32.8 54 12.2 28 28 S 5 7 29.88 1012 10 16.0934 0 0
10:53 am 10:53 Sunny 94 34.4 54 12.2 26 26 SSE 7 11 29.88 1012 10 16.0934 0 0
11:53 am 11:53 Sunny 97 36.1 53 11.7 23 23 undefined N/A 29.86 1011 10 16.0934 0 0
12:53 pm 12:53 Sunny 100 37.8 53 11.7 21 21 SSE 6 9 29.83 1010 10 16.0934 0 0
1:53 pm 13:53 Sunny 102 38.9 49 9.4 17 17 SSE 9 15 29.8 1009 10 16.0934 0 0
2:53 pm 14:53 Sunny 104 40 48 8.9 15 15 SE 9 15 29.78 1009 10 16.0934 0 0
3:53 pm 15:53 Sunny 105 40.6 43 6.1 12 12 W 9 15 29.75 1007 10 16.0934 0 0
4:53 pm 16:53 Sunny 104 40 43 6.1 12 12 WSW 7 11 29.73 1007 10 16.0934 0 0
5:53 pm 17:53 Sunny 104 40 42 5.6 12 12 WSW 13 20 29.72 1007 10 16.0934 0 0
6:53 pm 18:53 Sunny 103 39.4 41 5 12 12 SW 16 26 29.73 1007 10 16.0934 0 0
7:53 pm 19:53 Clear 102 38.9 40 4.4 12 12 SW 9 15 29.74 1007 10 16.0934 0 0
8:53 pm 20:53 Clear 99 37.2 39 3.9 12 12 WSW 8 13 29.76 1008 10 16.0934 0 0
9:53 pm 21:53 Clear 97 36.1 39 3.9 13 13 WSW 8 13 29.76 1008 10 16.0934 0 0
10:53 pm 22:53 Clear 95 35 41 5 15 15 WSW 7 11 29.77 1008 10 16.0934 0 0
11:53 pm 23:53 Clear 92 33.3 41 5 17 17 Calm 29.77 1008 10 16.0934 0 0

Powered by AerisWeather